Regional Weather Roundup
Issued by NWS

Home | Current Version | Previous Version | Graphics & Text | Print | Product List | Glossary On
Versions: 1 2 3 4 5 6 7 8 9 10 11 12 13 14 15 16 17 18 19 20 21 22 23 24 25 26 27 28 29 30 31 32 33 34 35 36 37 38 39 40 41 42 43 44 45 46 47 48 49 50
723
ASUS44 KLIX 212210
RWRLA
LOUISIANA WEATHER ROUNDUP
NATIONAL WEATHER SERVICE NEW ORLEANS LA
500 PM CDT SUN SEP 21 2014

NOTE: "FAIR" INDICATES FEW OR NO CLOUDS BELOW 12,000 FEET WITH NO
      SIGNIFICANT WEATHER AND/OR OBSTRUCTIONS TO VISIBILITY.
      SKY/WX - SKY CONDITION AND SIGNIFICANT WEATHER.
      TMP - AIR TEMPERATURE.    DP   - DEWPOINT TEMPERATURE.
      RH  - RELATIVE HUMIDITY.  PRES - PRESSURE.
      HX  - HEAT INDEX.         WCI  - WIND CHILL INDEX.

*  THESE STATIONS ARE NOT NWS OR FAA STATIONS AND ARE NOT UNDER
   NWS QUALITY CONTROL.

LAZ040-048-061>063-065-066-069-212300-
SOUTHEAST LOUISIANA

CITY           SKY/WX    TMP DP  RH WIND       PRES   REMARKS
N.O. AUDUBON     N/A     87  68  53 MISG        N/A
N.O. INTL ARPT MOSUNNY   88  66  48 NE6       29.97S
N.O. LAKEFRONT SUNNY     86  66  51 E3        29.98S
N.O. DOWNTOWN* FAIR      88  64  45 E3        29.98S
SLIDELL        SUNNY     88  66  48 CALM      29.97S
BATON ROUGE    MOSUNNY   90  66  45 NE7       29.97F
BOOTHVILLE     MOSUNNY   84  73  69 E14       29.97S
BELLE CHASSE   MOSUNNY   87  63  44 E8        29.97S
BOGALUSA*      FAIR      89  63  41 N3        29.99S
GALLIANO*      NOT AVBL
NEW ROADS*     FAIR      88  66  47 NE7       29.97F
GONZALES*      FAIR      88  66  47 N6        29.97S
HAMMOND*       SUNNY     90  63  40 NE3       29.99S
HOUMA*         MOSUNNY   84  46  26 NE7       29.96S
PORT FOURCHON* MOCLDY    84  73  70 NE16G22   29.99S

$$

LAZ041-044-053-054-212300-
SOUTHWEST LOUISIANA

CITY           SKY/WX    TMP DP  RH WIND       PRES   REMARKS
LAKE CHARLES   SUNNY     90  68  48 NE12      29.97F
LAFAYETTE      MOSUNNY   88  67  49 VRB3      29.97F
PATTERSON        N/A     88  66  48 NE13      29.99
SALT POINT       N/A     90  68  48 VRB3      29.96S
NEW IBERIA     MOSUNNY   90  66  45 NE10      29.97F
CHENAULT AIRPK NOT AVBL

$$

LAZ027-028-212300-
CENTRAL LOUISIANA

CITY           SKY/WX    TMP DP  RH WIND       PRES   REMARKS
FORT POLK      MOSUNNY   88  67  49 E5        29.98F
ALEXANDRIA INT CLOUDY    91  67  44 SE3       29.95F
ALEXANDRIA     SUNNY     92  69  47 N5        29.98F HX  97

$$

LAZ001-002-212300-
NORTHWEST LOUISIANA

CITY           SKY/WX    TMP DP  RH WIND       PRES   REMARKS
SHREVEPORT     MOSUNNY   92  63  38 N9        29.97F
BARKSDALE AFB  MOSUNNY   92  64  38 CALM      29.98S
DTN SHREVEPORT MOSUNNY   92  63  38 CALM      29.97F

$$

LAZ014-016-212300-
NORTHEAST LOUISIANA

CITY           SKY/WX    TMP DP  RH WIND       PRES   REMARKS
MONROE         SUNNY     91  66  43 CALM      29.97F
TALLULAH       SUNNY     89  70  53 VRB6      29.97S

$$




USA.gov is the U.S. government's official web portal to all federal, state and local government web resources and services.